Meteo orario Al Hufuf

Oggi, 28 Ottobre, Mercoledi

Tempo Temperatura Precipitazioni Vento Pressione Umidità
00:00 +21°C° 0 mm 1 m/s 748 mm Hg 80%
01:00 +20°C° 0 mm 1 m/s 748 mm Hg 81%
02:00 +19°C° 0 mm 1 m/s 747 mm Hg 82%
03:00 +17°C° 0 mm 0 m/s 747 mm Hg 82%
04:00 +17°C° 0 mm 0 m/s 748 mm Hg 80%
05:00 +19°C° 0 mm 1 m/s 748 mm Hg 78%
06:00 +19°C° 0 mm 1 m/s 749 mm Hg 76%
07:00 +22°C° 0 mm 1 m/s 749 mm Hg 60%
08:00 +26°C° 0 mm 1 m/s 749 mm Hg 44%
09:00 +29°C° 0 mm 1 m/s 749 mm Hg 27%
10:00 +31°C° 0 mm 2 m/s 749 mm Hg 22%
11:00 +34°C° 0 mm 3 m/s 749 mm Hg 18%
12:00 +35°C° 0 mm 4 m/s 748 mm Hg 13%
13:00 +35°C° 0 mm 4 m/s 748 mm Hg 12%
14:00 +35°C° 0 mm 4 m/s 747 mm Hg 12%
15:00 +35°C° 0 mm 4 m/s 747 mm Hg 11%
16:00 +33°C° 0 mm 4 m/s 747 mm Hg 17%
17:00 +29°C° 0 mm 4 m/s 748 mm Hg 23%
18:00 +26°C° 0 mm 3 m/s 748 mm Hg 29%
19:00 +25°C° 0 mm 3 m/s 748 mm Hg 40%
20:00 +24°C° 0 mm 2 m/s 748 mm Hg 52%
21:00 +23°C° 0 mm 2 m/s 749 mm Hg 63%
22:00 +21°C° 0 mm 1 m/s 748 mm Hg 69%
23:00 +20°C° 0 mm 1 m/s 748 mm Hg 75%

Domani, 29 Ottobre, Giovedi

Tempo Temperatura Precipitazioni Vento Pressione Umidità
00:00 +17°C° 0 mm 0 m/s 748 mm Hg 80%
01:00 +17°C° 0 mm 0 m/s 748 mm Hg 79%
02:00 +17°C° 0 mm 0 m/s 748 mm Hg 78%
03:00 +16°C° 0 mm 0 m/s 747 mm Hg 77%
04:00 +18°C° 0 mm 1 m/s 748 mm Hg 75%
05:00 +18°C° 0 mm 1 m/s 748 mm Hg 73%
06:00 +18°C° 0 mm 1 m/s 749 mm Hg 71%
07:00 +22°C° 0 mm 1 m/s 749 mm Hg 59%
08:00 +25°C° 0 mm 1 m/s 749 mm Hg 48%
09:00 +28°C° 0 mm 2 m/s 749 mm Hg 36%
10:00 +30°C° 0 mm 2 m/s 749 mm Hg 31%
11:00 +31°C° 0 mm 2 m/s 749 mm Hg 26%
12:00 +34°C° 0 mm 3 m/s 748 mm Hg 21%
13:00 +34°C° 0 mm 3 m/s 748 mm Hg 20%
14:00 +35°C° 0 mm 4 m/s 748 mm Hg 20%
15:00 +35°C° 0 mm 4 m/s 747 mm Hg 19%
16:00 +33°C° 0 mm 4 m/s 747 mm Hg 26%
17:00 +29°C° 0 mm 4 m/s 748 mm Hg 33%
18:00 +27°C° 0 mm 4 m/s 748 mm Hg 40%
19:00 +26°C° 0 mm 3 m/s 748 mm Hg 50%
20:00 +25°C° 0 mm 3 m/s 748 mm Hg 60%
21:00 +24°C° 0 mm 2 m/s 749 mm Hg 69%
22:00 +23°C° 0 mm 2 m/s 749 mm Hg 73%
23:00 +21°C° 0 mm 2 m/s 748 mm Hg 77%

Dopodomani, 30 Ottobre, Venerdi

Tempo Temperatura Precipitazioni Vento Pressione Umidità
00:00 +22°C° 0 mm 1 m/s 748 mm Hg 81%
01:00 +21°C° 0 mm 1 m/s 748 mm Hg 82%
02:00 +20°C° 0 mm 1 m/s 748 mm Hg 83%
03:00 +17°C° 0 mm 0 m/s 748 mm Hg 84%
04:00 +17°C° 0 mm 0 m/s 748 mm Hg 84%
05:00 +17°C° 0 mm 0 m/s 748 mm Hg 84%
06:00 +19°C° 0 mm 1 m/s 749 mm Hg 83%
07:00 +22°C° 0 mm 1 m/s 749 mm Hg 71%
08:00 +25°C° 0 mm 1 m/s 749 mm Hg 58%
09:00 +28°C° 0 mm 1 m/s 750 mm Hg 46%
10:00 +30°C° 0 mm 1 m/s 749 mm Hg 37%
11:00 +32°C° 0 mm 1 m/s 749 mm Hg 28%
12:00 +35°C° 0 mm 2 m/s 748 mm Hg 19%
13:00 +35°C° 0 mm 2 m/s 748 mm Hg 18%
14:00 +35°C° 0 mm 2 m/s 748 mm Hg 16%
15:00 +36°C° 0 mm 2 m/s 747 mm Hg 14%
16:00 +33°C° 0 mm 3 m/s 747 mm Hg 20%
17:00 +29°C° 0 mm 3 m/s 748 mm Hg 25%
18:00 +27°C° 0 mm 3 m/s 748 mm Hg 30%
19:00 +26°C° 0 mm 3 m/s 748 mm Hg 33%
20:00 +24°C° 0 mm 2 m/s 748 mm Hg 36%
21:00 +23°C° 0 mm 2 m/s 748 mm Hg 39%
22:00 +22°C° 0 mm 1 m/s 748 mm Hg 48%
23:00 +21°C° 0 mm 1 m/s 748 mm Hg 57%

31 Ottobre, Sabato

Tempo Temperatura Precipitazioni Vento Pressione Umidità
00:00 +18°C° 0 mm 0 m/s 748 mm Hg 65%
01:00 +18°C° 0 mm 0 m/s 748 mm Hg 69%
02:00 +18°C° 0 mm 0 m/s 748 mm Hg 73%
03:00 +17°C° 0 mm 0 m/s 748 mm Hg 77%
04:00 +17°C° 0 mm 0 m/s 748 mm Hg 77%
05:00 +17°C° 0 mm 0 m/s 748 mm Hg 77%
06:00 +17°C° 0 mm 0 m/s 749 mm Hg 76%
07:00 +20°C° 0 mm 0 m/s 749 mm Hg 61%
08:00 +24°C° 0 mm 0 m/s 750 mm Hg 46%
09:00 +30°C° 0 mm 1 m/s 750 mm Hg 31%
10:00 +31°C° 0 mm 1 m/s 750 mm Hg 26%
11:00 +33°C° 0 mm 1 m/s 749 mm Hg 20%
12:00 +34°C° 0 mm 1 m/s 749 mm Hg 15%
13:00 +35°C° 0 mm 1 m/s 748 mm Hg 14%
14:00 +35°C° 0 mm 1 m/s 748 mm Hg 13%
15:00 +36°C° 0 mm 2 m/s 748 mm Hg 12%
16:00 +32°C° 0 mm 2 m/s 748 mm Hg 18%
17:00 +30°C° 0 mm 3 m/s 748 mm Hg 23%
18:00 +27°C° 0 mm 3 m/s 748 mm Hg 28%
19:00 +26°C° 0 mm 3 m/s 748 mm Hg 36%
20:00 +25°C° 0 mm 3 m/s 749 mm Hg 43%
21:00 +24°C° 0 mm 2 m/s 749 mm Hg 51%
22:00 +23°C° 0 mm 2 m/s 749 mm Hg 59%
23:00 +22°C° 0 mm 1 m/s 749 mm Hg 68%

1 Novenbre, Domenica

Tempo Temperatura Precipitazioni Vento Pressione Umidità
00:00 +21°C° 0 mm 1 m/s 749 mm Hg 76%
01:00 +20°C° 0 mm 1 m/s 749 mm Hg 76%
02:00 +20°C° 0 mm 1 m/s 749 mm Hg 75%
03:00 +20°C° 0 mm 1 m/s 749 mm Hg 75%
04:00 +20°C° 0 mm 1 m/s 749 mm Hg 74%
05:00 +20°C° 0 mm 1 m/s 749 mm Hg 73%
06:00 +20°C° 0 mm 1 m/s 749 mm Hg 72%
07:00 +23°C° 0 mm 1 m/s 750 mm Hg 59%
08:00 +26°C° 0 mm 1 m/s 750 mm Hg 45%
09:00 +29°C° 0 mm 1 m/s 751 mm Hg 32%
10:00 +31°C° 0 mm 1 m/s 750 mm Hg 27%
11:00 +33°C° 0 mm 1 m/s 750 mm Hg 21%
12:00 +34°C° 0 mm 1 m/s 750 mm Hg 16%
13:00 +35°C° 0 mm 2 m/s 749 mm Hg 15%
14:00 +36°C° 0 mm 2 m/s 749 mm Hg 14%
15:00 +36°C° 0 mm 2 m/s 749 mm Hg 13%
16:00 +33°C° 0 mm 3 m/s 749 mm Hg 18%
17:00 +30°C° 0 mm 3 m/s 749 mm Hg 23%
18:00 +27°C° 0 mm 4 m/s 749 mm Hg 27%
19:00 +26°C° 0 mm 3 m/s 749 mm Hg 36%
20:00 +25°C° 0 mm 3 m/s 749 mm Hg 45%
21:00 +24°C° 0 mm 3 m/s 750 mm Hg 54%
22:00 +23°C° 0 mm 2 m/s 749 mm Hg 63%
23:00 +21°C° 0 mm 2 m/s 749 mm Hg 71%

2 Novenbre, Lunedi

Tempo Temperatura Precipitazioni Vento Pressione Umidità
00:00 +21°C° 0 mm 1 m/s 749 mm Hg 80%
01:00 +21°C° 0 mm 1 m/s 749 mm Hg 80%
02:00 +20°C° 0 mm 1 m/s 749 mm Hg 80%
03:00 +20°C° 0 mm 1 m/s 749 mm Hg 80%
04:00 +20°C° 0 mm 1 m/s 750 mm Hg 78%
05:00 +20°C° 0 mm 1 m/s 750 mm Hg 76%
06:00 +20°C° 0 mm 1 m/s 750 mm Hg 75%
07:00 +23°C° 0 mm 1 m/s 751 mm Hg 61%
08:00 +26°C° 0 mm 1 m/s 751 mm Hg 48%
09:00 +29°C° 0 mm 1 m/s 751 mm Hg 34%
10:00 +31°C° 0 mm 1 m/s 751 mm Hg 29%
11:00 +30°C° 0 mm 0 m/s 751 mm Hg 23%
12:00 +32°C° 0 mm 0 m/s 751 mm Hg 17%
13:00 +34°C° 0 mm 1 m/s 750 mm Hg 16%
14:00 +35°C° 0 mm 1 m/s 750 mm Hg 15%
15:00 +36°C° 0 mm 2 m/s 749 mm Hg 14%
16:00 +32°C° 0 mm 2 m/s 749 mm Hg 20%
17:00 +30°C° 0 mm 3 m/s 750 mm Hg 26%
18:00 +27°C° 0 mm 3 m/s 750 mm Hg 32%
19:00 +26°C° 0 mm 3 m/s 750 mm Hg 37%
20:00 +25°C° 0 mm 2 m/s 750 mm Hg 42%
21:00 +23°C° 0 mm 2 m/s 750 mm Hg 46%
22:00 +23°C° 0 mm 2 m/s 750 mm Hg 55%
23:00 +22°C° 0 mm 1 m/s 750 mm Hg 63%
Mostrare altro

Abbiamo bisogno del tuo consenso

Meteoprog e i nostri fornitori di servizi possono memorizzare e accedere a dati personali come cookie, identificatori di dispositivi o altre tecnologie simili sul tuo dispositivo e possono elaborare tali dati per personalizzare i contenuti e gli annunci, nonché fornire funzionalità dei social media e analizzarne il traffico.

  • Archiviare e/o accedere alle informazioni sul tuo dispositivo

    Cookie, identificatori di dispositivi o altre informazioni possono essere memorizzati o resi accessibili sul tuo dispositivo per le finalità sopra indicate.

  • Annunci e contenuti personalizzati, misurazione di annunci e contenuti, approfondimenti sul pubblico e sviluppo di prodotti

    Gli annunci e i contenuti possono essere personalizzati in base a un profilo. È possibile aggiungere più dati per personalizzare meglio annunci e contenuti. È possibile misurare il rendimento degli annunci e dei contenuti. È possibile ricavare informazioni sul pubblico che ha visto gli annunci e i contenuti. Tali dati possono essere utilizzati per sviluppare o migliorare l'esperienza, i sistemi e il software dell'utente.

Cliccando su “Accetto”, acconsenti all'uso di cookie, identificatori di dispositivo, web beacon o altre tecnologie simili. Puoi modificare le impostazioni nel browser del tuo dispositivo.

Per determinati scopi, è possibile fare affidamento su interessi legali, piuttosto che sul consenso. Puoi approfondire questo argomento consultando la nostra Informativa sulla privacy e sui cookie.